{"data":{"norad_id":62789,"intl_designator":"2025-016E","name":"QIANFAN-59","alt_names":[],"object_type":"PAYLOAD","status":"ACTIVE","operator":null,"country":"PRC","launch_date":"2025-01-23","launch_site_code":"TAISC","launch_vehicle":null,"mission":null,"orbit_class":"UNKNOWN","rcs_meters":null,"size_class":null,"mass_kg":null,"dimensions":null,"purposes":[],"wikipedia_slug":null,"has_3d_model":false,"image_url":null,"decayed_at":null,"tle_current":{"epoch":"2026-09-22T22:13:56.462016Z","epoch_age_seconds":108886,"freshness":"FRESH","line1":"1 62789U 25016E   26265.92634794  .00000052  00000+0  61831-4 0  9990","line2":"2 62789  88.9672  73.5924 0012592 242.5564 117.4307 13.51024828 85618","mean_motion":13.51024828,"eccentricity":0.0012592,"inclination_deg":88.9672,"raan_deg":73.5924,"arg_perigee_deg":242.5564,"mean_anomaly_deg":117.4307,"bstar":6.1831e-5,"rev_number":8561,"period_min":106.58575402583,"perigee_km":1059.1135587761,"apogee_km":1077.8671450992,"semimajor_km":7446.6273519377,"source":"CELESTRAK","updated_at":"2026-09-23T09:00:21.634025Z"}}}